sat.trackr.live / text

‹ back to catalog

ONEWEB-0295

NORAD 49084 · 2021-075K

PAYLOAD ACTIVE UNKNOWN

§ Identity

Operator
Country
UK
Launch date
2021-08-21
Launch site
TYMSC
Launch vehicle
Mass (kg)
RCS (m²)

Purposes: comms

External: N2YO · Heavens-Above · Gunter

§ Orbital elements

Epoch: 2026-05-25T00:39:12.011040Z

Period
109.29 min
Inclination
87.9154°
Eccentricity
0.0001958
Mean motion
13.17652056 rev/d
Perigee alt
1,192.2 km
Apogee alt
1,195.2 km
Semi-major
7,571.8 km
B*
-2.3341e-4
RAAN
10.4755°
Arg perigee
94.1388°
Mean anomaly
265.9968°
Rev number
23,054

§ Raw data

ONEWEB-02951 49084U 21075K   26145.02722235 -.00000078  00000+0 -23341-3 0  99932 49084  87.9154  10.4755 0001958  94.1388 265.9968 13.17652056230544

JSON: /api/v1/satellites/49084 · /tle

For live sub-satellite position, see the globe view (requires WebGL).

§ Visibility from observer

Set your observer location to see the next 7 days of passes ≥ 10°. The values pass through the URL so the page stays shareable.

No JS? Fill the form by hand. The geolocation button needs JavaScript.